Voltar ao catálogo

STARLINK-3193

AtivoComunicaçõesVLEO
NORAD 49754·PAYLOAD·🇺🇸 United States

Lançado Dec 2, 2021 de Cape Canaveral Space Force Station

Loading…

Próximas Passagens (próximas 24 horas)

TLE

AtualizadoSource: CelesTrak SupGP

Época: Sep 14, 2026, 20:45 UTC

1 49754C 21115AG  26257.86506944 -.00042848  00000+0 -12259-2 0  2578
2 49754  53.1593 356.3936 0001019  83.8529 114.8219 15.35420306    14

Acompanhe STARLINK-3193 em tempo real com AllMySat

Download on the App Store